FW7040 Weather Reports


time (UTC)temp
F
wind
direction
speed
knots
gust
knots
rain 1hr
in
rain 24hr
in
rain mn
in
humidity
%
barometer
mb
20260506145646 74 299 2.6 13.0 0.00 0.00 0.00 85 1014.2
20260506145143 77 106 0.0 2.6 0.00 0.00 0.00 88 1013.9
20260506144641 77 90 1.7 3.5 0.00 0.00 0.00 88 1013.6
20260506144137 77 113 2.6 5.2 0.00 0.00 0.00 88 1013.3
20260506143635 77 115 4.3 7.0 0.00 0.00 0.00 88 1012.7
20260506143133 77 120 8.7 8.7 0.00 0.00 0.00 88 1013.2
20260506142631 77 115 5.2 5.2 0.00 0.00 0.00 89 1012.8
20260506142129 77 117 4.3 5.2 0.00 0.00 0.00 89 1012.7
20260506141626 77 144 4.3 5.2 0.00 0.00 0.00 89 1012.5
20260506141125 77 110 1.7 4.3 0.00 0.00 0.00 89 1012.5
20260506140622 77 82 0.9 5.2 0.00 0.00 0.00 89 1012.5
20260506140119 76 108 4.3 5.2 0.00 0.00 0.00 90 1012.9
20260506135615 76 90 2.6 5.2 0.00 0.00 0.00 90 1012.8
20260506135112 76 99 3.5 6.1 0.00 0.00 0.00 90 1013.0
20260506134608 76 95 0.0 6.1 0.00 0.00 0.00 90 1012.7
20260506134104 76 121 0.0 7.0 0.00 0.00 0.00 90 1012.4
20260506133602 76 105 0.0 4.3 0.00 0.00 0.00 90 1012.5
20260506133059 76 124 2.6 4.3 0.00 0.00 0.00 90 1012.5
20260506132556 76 87 2.6 3.5 0.00 0.00 0.00 90 1012.5
20260506132053 76 120 0.0 4.3 0.00 0.00 0.00 91 1012.4
20260506131550 76 112 2.6 4.3 0.00 0.00 0.00 91 1012.6
20260506131046 76 113 1.7 7.0 0.00 0.00 0.00 91 1012.4
20260506130543 76 15 0.0 4.3 0.00 0.00 0.00 91 1012.0
20260506130041 76 98 0.9 4.3 0.00 0.00 0.00 91 1011.9
20260506125539 76 85 3.5 5.2 0.00 0.00 0.00 91 1011.8
20260506125036 76 115 1.7 6.1 0.00 0.00 0.00 91 1011.7
20260506124534 75 121 1.7 4.3 0.00 0.00 0.00 91 1011.9
20260506124032 75 83 2.6 7.0 0.00 0.00 0.00 91 1011.7
20260506123529 76 106 1.7 5.2 0.00 0.00 0.00 91 1011.6
20260506123027 75 102 1.7 4.3 0.00 0.00 0.00 92 1011.6
20260506122524 75 118 0.0 4.3 0.00 0.00 0.00 91 1011.6
20260506122022 75 103 0.9 3.5 0.00 0.00 0.00 91 1011.7
20260506121519 75 98 0.0 1.7 0.00 0.00 0.00 91 1011.6
20260506121015 75 90 0.0 1.7 0.00 0.00 0.00 91 1011.7
20260506120514 75 106 0.0 2.6 0.00 0.00 0.00 91 1011.8
20260506120010 75 114 2.6 2.6 0.00 0.00 0.00 91 1011.7
20260506115508 75 81 0.0 2.6 0.00 0.00 0.00 91 1011.4
20260506115007 75 94 2.6 2.6 0.00 0.00 0.00 91 1011.6
20260506114503 75 83 0.0 2.6 0.00 0.00 0.00 91 1011.3
20260506114002 75 79 2.6 2.6 0.00 0.00 0.00 91 1011.4
20260506113459 75 90 0.0 2.6 0.00 0.00 0.00 90 1011.5
20260506112956 75 105 0.0 2.6 0.00 0.00 0.00 90 1011.5
20260506112453 75 82 0.9 2.6 0.00 0.00 0.00 90 1011.8
20260506111950 75 68 0.0 2.6 0.00 0.00 0.00 90 1011.8
20260506111449 75 342 0.0 0.9 0.00 0.00 0.00 90 1011.6
20260506110945 75 99 0.0 0.0 0.00 0.00 0.00 90 1011.7
20260506110443 75 83 0.0 1.7 0.00 0.00 0.00 90 1011.7
20260506105939 75 294 0.0 1.7 0.00 0.00 0.00 90 1011.7
20260506105436 75 83 0.0 0.0 0.00 0.00 0.00 90 1011.7
20260506104933 76 99 0.0 0.9 0.00 0.00 0.00 90 1011.8
20260506104431 76 77 0.9 0.9 0.00 0.00 0.00 90 1011.7
20260506103929 76 200 0.0 0.9 0.00 0.00 0.00 90 1011.5
20260506103427 75 188 0.0 0.0 0.00 0.00 0.00 90 1011.5
20260506102923 76 188 0.0 0.0 0.00 0.00 0.00 89 1011.4
20260506102421 76 126 0.0 0.9 0.00 0.00 0.00 90 1011.3
20260506101918 76 209 0.0 0.0 0.00 0.00 0.00 89 1011.4
20260506101414 76 203 0.0 0.9 0.00 0.00 0.00 89 1011.2
20260506100912 76 154 0.0 2.6 0.00 0.00 0.00 89 1011.1
20260506100410 76 203 0.0 1.7 0.00 0.00 0.00 89 1011.2
20260506095908 76 233 2.6 2.6 0.00 0.00 0.00 89 1011.1
20260506095406 76 183 2.6 2.6 0.00 0.00 0.00 89 1011.0
20260506094902 76 206 0.0 4.3 0.00 0.00 0.00 89 1010.8
20260506094401 76 194 0.0 4.3 0.00 0.00 0.00 89 1010.8
20260506093858 76 195 1.7 6.1 0.00 0.00 0.00 88 1010.9
20260506093355 76 172 0.0 5.2 0.00 0.00 0.00 88 1010.9
20260506092853 76 194 3.5 5.2 0.00 0.00 0.00 88 1010.8
20260506092351 76 201 2.6 3.5 0.00 0.00 0.00 88 1010.6
20260506091847 76 151 4.3 7.0 0.00 0.00 0.00 88 1010.8
20260506091345 76 148 2.6 4.3 0.00 0.00 0.00 88 1010.9
20260506090842 77 173 0.9 4.3 0.00 0.00 0.00 88 1010.6
20260506090340 77 153 3.5 5.2 0.00 0.00 0.00 88 1010.5
20260506085836 76 205 5.2 6.1 0.00 0.00 0.00 88 1010.5
20260506085332 76 143 4.3 6.1 0.00 0.00 0.00 88 1010.2
20260506084829 77 149 5.2 7.0 0.00 0.00 0.00 87 1010.4
20260506084326 77 153 4.3 6.1 0.00 0.00 0.00 87 1010.4
20260506083823 77 127 1.7 5.2 0.00 0.00 0.00 87 1010.4
20260506083320 77 133 2.6 4.3 0.00 0.00 0.00 87 1010.4
20260506082818 77 144 0.0 4.3 0.00 0.00 0.00 87 1010.7
20260506082314 77 160 2.6 4.3 0.00 0.00 0.00 86 1010.7
20260506081810 77 140 2.6 5.2 0.00 0.00 0.00 87 1010.4
20260506081308 77 164 2.6 3.5 0.00 0.00 0.00 87 1010.5
20260506080806 77 139 4.3 6.1 0.00 0.00 0.00 86 1010.8
20260506080302 77 131 1.7 5.2 0.00 0.00 0.00 86 1010.5
20260506073246 77 154 2.6 9.6 0.00 0.00 0.00 87 1010.7
20260506072743 77 148 7.0 10.4 0.00 0.00 0.00 87 1011.1
20260506072240 77 153 7.8 12.2 0.00 0.00 0.00 87 1010.9
20260506071738 77 100 2.6 13.0 0.00 0.00 0.00 87 1011.0
20260506071236 77 150 6.1 9.6 0.00 0.00 0.00 87 1011.1
20260506070732 77 152 7.0 15.6 0.00 0.00 0.00 87 1010.9
20260506070229 77 171 1.7 8.7 0.00 0.00 0.00 87 1010.9
20260506062206 77 148 7.8 11.3 0.00 0.00 0.00 87 1010.9
20260506061702 77 145 7.0 8.7 0.00 0.00 0.00 87 1010.8
20260506061200 77 140 9.6 9.6 0.00 0.00 0.00 87 1010.9
20260506060659 77 137 4.3 9.6 0.00 0.00 0.00 87 1010.9
20260506060155 76 153 10.4 13.0 0.00 0.00 0.00 87 1010.6
20260506051127 77 154 5.2 11.3 0.00 0.00 0.00 87 1010.8
20260506050625 77 151 6.1 13.0 0.00 0.00 0.00 87 1010.8
20260506050122 77 148 1.7 10.4 0.00 0.00 0.00 87 1011.0
20260506045115 77 110 1.7 8.7 0.00 0.00 0.00 87 1011.0
20260506044613 77 139 6.1 8.7 0.00 0.00 0.00 87 1010.8
20260506044110 77 124 5.2 7.8 0.00 0.00 0.00 87 1010.7
20260506043607 77 145 6.1 9.6 0.00 0.00 0.00 87 1010.7
20260506043105 77 124 5.2 8.7 0.00 0.00 0.00 87 1010.9
20260506042604 77 157 6.1 7.0 0.00 0.00 0.00 86 1010.6
20260506042102 78 149 2.6 5.2 0.00 0.00 0.00 86 1011.0
20260506041600 78 145 3.5 6.1 0.00 0.00 0.00 86 1010.9
20260506041056 78 90 2.6 6.1 0.00 0.00 0.00 86 1010.7
20260506040554 78 139 3.5 7.8 0.00 0.00 0.00 86 1010.8
20260506040050 78 128 5.2 7.8 0.00 0.00 0.00 85 1010.6
20260506035547 78 142 6.1 7.8 0.00 0.00 0.00 85 1010.6
20260506035044 78 117 4.3 8.7 0.00 0.00 0.00 85 1010.4
20260506034542 78 116 3.5 7.8 0.00 0.00 0.00 85 1010.2
20260506034038 78 113 5.2 6.1 0.00 0.00 0.00 84 1010.3
20260506033536 78 108 2.6 7.8 0.00 0.00 0.00 84 1010.2
20260506033032 79 130 4.3 8.7 0.00 0.00 0.00 83 1010.2
20260506032530 78 93 2.6 7.0 0.00 0.00 0.00 83 1010.4
20260506032026 79 121 4.3 7.0 0.00 0.00 0.00 82 1010.2
20260506031524 80 99 1.7 5.2 0.00 0.00 0.00 82 1010.2
20260506031021 79 139 4.3 7.0 0.00 0.00 0.00 82 1010.1
20260506030519 79 141 4.3 6.1 0.00 0.00 0.00 82 1010.2
20260506030016 79 106 3.5 4.3 0.00 0.00 0.00 82 1009.8
20260506025513 80 129 6.1 7.0 0.00 0.00 0.00 81 1009.9
20260506025009 80 163 1.7 4.3 0.00 0.00 0.00 80 1009.8
20260506024506 80 160 2.6 6.1 0.00 0.00 0.00 81 1009.9
20260506024002 80 125 4.3 5.2 0.00 0.00 0.00 81 1009.6
20260506023458 80 153 3.5 6.1 0.00 0.00 0.00 80 1009.5
20260506022955 80 138 2.6 5.2 0.00 0.00 0.00 80 1009.6
20260506022453 80 135 3.5 6.1 0.00 0.00 0.00 80 1009.4
20260506021951 80 123 4.3 5.2 0.00 0.00 0.00 79 1009.2
20260506021448 81 157 2.6 6.1 0.00 0.00 0.00 79 1009.0
20260506020945 80 142 1.7 4.3 0.00 0.00 0.00 79 1009.0
20260506020443 80 168 1.7 8.7 0.00 0.00 0.00 79 1009.1
20260506015940 81 114 3.5 6.1 0.00 0.00 0.00 78 1008.9
20260506015437 81 114 4.3 5.2 0.00 0.00 0.00 78 1008.8
20260506014934 81 147 3.5 6.1 0.00 0.00 0.00 77 1008.7
20260506014431 81 144 4.3 7.0 0.00 0.00 0.00 77 1008.5
20260506013927 81 119 7.0 7.8 0.00 0.00 0.00 77 1008.5
20260506013426 81 113 7.0 7.0 0.00 0.00 0.00 76 1008.7
20260506012921 82 135 3.5 5.2 0.00 0.00 0.00 76 1008.5
20260506012418 82 140 4.3 5.2 0.00 0.00 0.00 75 1008.6
20260506011915 82 123 2.6 6.1 0.00 0.00 0.00 75 1008.7
20260506011412 82 135 4.3 8.7 0.00 0.00 0.00 75 1008.7
20260506010909 82 143 7.8 8.7 0.00 0.00 0.00 75 1008.6
20260506010408 82 135 4.3 7.8 0.00 0.00 0.00 74 1008.6
20260506005904 83 149 2.6 4.3 0.00 0.00 0.00 74 1008.5
20260506005402 83 137 3.5 5.2 0.00 0.00 0.00 74 1008.4
20260506004856 83 100 2.6 6.1 0.00 0.00 0.00 74 1008.5
20260506004355 83 125 2.6 4.3 0.00 0.00 0.00 72 1008.7
20260506003851 83 135 5.2 7.0 0.00 0.00 0.00 71 1008.5
20260506003347 84 137 3.5 6.1 0.00 0.00 0.00 71 1008.7
20260506002844 84 128 2.6 4.3 0.00 0.00 0.00 71 1008.8
20260506002340 83 130 3.5 6.1 0.00 0.00 0.00 71 1008.7
20260506001835 84 141 7.0 7.0 0.00 0.00 0.00 71 1008.8
20260506001333 84 149 3.5 5.2 0.00 0.00 0.00 71 1008.6
20260506000830 84 110 2.6 5.2 0.00 0.00 0.00 72 1008.6
20260506000329 84 129 2.6 7.0 0.00 0.00 0.00 72 1008.6
20260505235824 84 153 5.2 7.0 0.00 0.00 0.00 71 1008.7
20260505235322 84 140 4.3 7.0 0.00 0.00 0.00 71 1008.6
20260505234818 84 159 6.1 6.1 0.00 0.00 0.00 71 1008.5
20260505234317 84 142 6.1 7.8 0.00 0.00 0.00 71 1008.5
20260505233813 83 148 7.0 9.6 0.00 0.00 0.00 71 1008.4
20260505233311 84 131 5.2 7.8 0.00 0.00 0.00 70 1008.2
20260505232808 84 190 4.3 11.3 0.00 0.00 0.00 71 1008.1
20260505232306 84 142 10.4 10.4 0.00 0.00 0.00 70 1008.3
20260505231802 84 146 5.2 9.6 0.00 0.00 0.00 71 1008.2
20260505231300 84 158 5.2 7.8 0.00 0.00 0.00 70 1008.2
20260505230758 84 135 7.0 9.6 0.00 0.00 0.00 70 1008.3
20260505230254 84 206 6.1 10.4 0.00 0.00 0.00 70 1008.4
20260505225751 84 155 5.2 6.1 0.00 0.00 0.00 70 1008.3
20260505225249 84 206 2.6 5.2 0.00 0.00 0.00 70 1008.2
20260505224743 84 141 3.5 5.2 0.00 0.00 0.00 70 1008.2
20260505224242 84 152 7.0 7.8 0.00 0.00 0.00 69 1007.9
20260505223739 84 143 1.7 10.4 0.00 0.00 0.00 70 1008.3
20260505223235 84 154 4.3 8.7 0.00 0.00 0.00 70 1008.0
20260505222731 84 153 6.1 10.4 0.00 0.00 0.00 70 1008.0
20260505222227 84 134 8.7 11.3 0.00 0.00 0.00 70 1008.1
20260505221725 84 143 7.8 10.4 0.00 0.00 0.00 69 1007.9
20260505221221 84 136 14.8 14.8 0.00 0.00 0.00 69 1008.1
20260505220718 84 150 7.0 8.7 0.00 0.00 0.00 70 1008.1
20260505220216 84 97 5.2 7.8 0.00 0.00 0.00 70 1008.3
20260505215714 84 138 9.6 9.6 0.00 0.00 0.00 69 1008.1
20260505215211 84 139 7.0 7.8 0.00 0.00 0.00 69 1008.1
20260505214709 85 138 5.2 11.3 0.00 0.00 0.00 67 1008.2
20260505214206 86 156 7.0 7.8 0.00 0.00 0.00 66 1008.5
20260505213703 86 223 3.5 7.0 0.00 0.00 0.00 65 1008.5
20260505213201 86 211 7.0 7.8 0.00 0.00 0.00 65 1008.3
20260505212656 85 205 6.1 9.6 0.00 0.00 0.00 67 1008.7
20260505212154 85 137 7.0 10.4 0.00 0.00 0.00 66 1008.6
20260505211650 85 149 7.0 13.0 0.00 0.00 0.00 66 1008.6
20260505211148 86 205 5.2 7.0 0.00 0.00 0.00 66 1008.7
20260505210644 85 209 5.2 7.0 0.00 0.00 0.00 66 1008.5
20260505210141 85 171 3.5 8.7 0.00 0.00 0.00 67 1008.7
20260505205638 86 175 4.3 7.0 0.00 0.00 0.00 66 1008.6
20260505205137 85 164 0.0 7.0 0.00 0.00 0.00 68 1008.9
20260505204633 84 147 10.4 14.8 0.00 0.00 0.00 68 1008.8
20260505204131 84 173 4.3 12.2 0.00 0.00 0.00 68 1008.9
20260505203622 84 125 7.8 13.0 0.00 0.00 0.00 68 1008.9
20260505203119 84 150 7.8 10.4 0.00 0.00 0.00 68 1008.8
20260505202615 85 180 1.7 6.1 0.00 0.00 0.00 67 1009.1
20260505202111 85 203 3.5 9.6 0.00 0.00 0.00 67 1009.2
20260505201608 84 164 1.7 8.7 0.00 0.00 0.00 67 1009.3
20260505201106 85 221 1.7 9.6 0.00 0.00 0.00 66 1009.4
20260505200603 86 206 4.3 7.8 0.00 0.00 0.00 67 1009.5
20260505200100 84 180 0.9 8.7 0.00 0.00 0.00 68 1009.4
20260505195556 85 208 5.2 7.8 0.00 0.00 0.00 68 1009.7
20260505195054 84 164 3.5 8.7 0.00 0.00 0.00 69 1009.6
20260505194550 84 149 7.8 7.8 0.00 0.00 0.00 68 1009.6
20260505194046 84 190 3.5 8.7 0.00 0.00 0.00 68 1009.6
20260505193543 84 189 3.5 7.8 0.00 0.00 0.00 69 1009.9
20260505193040 84 182 2.6 7.0 0.00 0.00 0.00 69 1010.0
20260505192539 83 195 0.0 5.2 0.00 0.00 0.00 70 1010.0
20260505192036 83 201 1.7 6.1 0.00 0.00 0.00 70 1010.0
20260505191534 83 205 4.3 6.1 0.00 0.00 0.00 70 1010.1
20260505191032 83 204 4.3 5.2 0.00 0.00 0.00 70 1010.1
20260505190526 82 202 4.3 6.1 0.00 0.00 0.00 72 1010.1
20260505190023 82 180 1.7 7.0 0.00 0.00 0.00 70 1010.0
20260505185520 82 206 3.5 8.7 0.00 0.00 0.00 70 1010.2
20260505185016 82 201 4.3 6.1 0.00 0.00 0.00 72 1010.3
20260505184513 81 210 3.5 7.8 0.00 0.00 0.00 72 1010.5
20260505184009 81 158 2.6 7.0 0.00 0.00 0.00 73 1010.4
20260505183507 82 172 1.7 8.7 0.00 0.00 0.00 73 1010.6
20260505183004 80 203 2.6 6.1 0.00 0.00 0.00 74 1010.6
20260505182500 81 152 2.6 7.8 0.00 0.00 0.00 73 1010.9
20260505181956 80 217 4.3 9.6 0.00 0.00 0.00 74 1010.8
20260505181454 80 200 4.3 8.7 0.00 0.00 0.00 74 1010.9
20260505180950 79 177 1.7 6.1 0.00 0.00 0.00 76 1011.0
20260505180446 79 189 6.1 8.7 0.00 0.00 0.00 77 1011.0
20260505175943 79 148 8.7 8.7 0.00 0.00 0.00 77 1011.0
20260505175439 78 141 7.0 8.7 0.00 0.00 0.00 77 1011.1
20260505174936 78 172 0.0 7.0 0.00 0.00 0.00 78 1011.3
20260505174434 78 221 6.1 6.1 0.00 0.00 0.00 78 1011.4
20260505173930 78 205 4.3 7.0 0.00 0.00 0.00 79 1011.4
20260505173426 77 217 5.2 7.0 0.00 0.00 0.00 79 1011.3
20260505172923 77 148 5.2 8.7 0.00 0.00 0.00 79 1011.4
20260505172422 77 238 3.5 7.8 0.00 0.00 0.00 80 1011.6
20260505171921 77 204 4.3 7.8 0.00 0.00 0.00 80 1011.6
20260505171418 77 207 8.7 8.7 0.00 0.00 0.00 81 1011.6
20260505170914 77 207 3.5 8.7 0.00 0.00 0.00 81 1011.3
20260505170411 77 188 2.6 6.1 0.00 0.00 0.00 82 1011.6
20260505165906 76 202 3.5 8.7 0.00 0.00 0.00 83 1011.7
20260505165403 76 180 0.9 6.1 0.00 0.00 0.00 83 1011.7
20260505164858 75 207 5.2 7.8 0.00 0.00 0.00 83 1011.5
20260505164355 75 178 2.6 7.0 0.00 0.00 0.00 83 1011.5
20260505163853 75 194 2.6 6.1 0.00 0.00 0.00 83 1011.4
20260505163352 75 213 2.6 7.8 0.00 0.00 0.00 84 1011.7
20260505162850 75 213 3.5 6.1 0.00 0.00 0.00 84 1011.7
20260505162346 74 159 5.2 7.0 0.00 0.00 0.00 84 1011.7
20260505161843 75 199 1.7 6.1 0.00 0.00 0.00 85 1011.5
20260505161340 74 201 5.2 5.2 0.00 0.00 0.00 85 1011.6
20260505160837 74 200 5.2 7.8 0.00 0.00 0.00 86 1011.5
20260505160335 73 180 3.5 7.0 0.00 0.00 0.00 86 1011.7
20260505153314 73 202 5.2 6.1 0.00 0.00 0.00 87 1011.8
20260505152811 73 210 0.0 7.0 0.00 0.00 0.00 87 1011.8
20260505152308 73 198 2.6 7.8 0.00 0.00 0.00 87 1011.7
20260505151802 72 192 3.5 6.1 0.00 0.00 0.00 87 1011.7
20260505151259 72 203 2.6 5.2 0.00 0.00 0.00 87 1011.5
20260505150756 72 213 4.3 7.0 0.00 0.00 0.00 87 1011.5
20260505150253 72 188 5.2 7.0 0.00 0.00 0.00 87 1011.4